Home > Weather > Eisenhüttenstadt > Past weeks

Flag for Germany Past Weather in Eisenhüttenstadt, Brandenburg, Germany — Yesterday and Last 2 Weeks

Now
70 °F

Clear.


Feels Like: 70 °F
Forecast: 62 / 81 °F
Wind: 3 mph from North

Location: Zielona Gora Airport

Current Time: Jul 26, 2016 at 11:56:15 PM

Latest Report: Jul 26, 2016 at 10:00 PM


Visibility: 10 mi

Pressure: 30.09 "Hg

Humidity: 94%

Dew Point: 68 °F

Location of EisenhüttenstadtLocation

Past Weather in Eisenhüttenstadt — Graph

°F

Eisenhüttenstadt Temperature Yesterday

Maximum temperature yesterday: 84 °F (at 1:30 PM)
Minimum temperature yesterday: 61 °F (at 5:30 AM)
Average temperature yesterday: 77 °F

High & Low Weather Summary for the Past Weeks

 TemperatureHumidityPressure
High84 °F (Jul 21, 3:30 PM)100% (Jul 14, 5:30 AM)30.24 "Hg (Jul 14, 5:30 AM)
Low50 °F (Jul 21, 5:30 AM)21% (Jul 22, 4:30 PM)29.68 "Hg (Jul 14, 12:30 PM)
Average69 °F70%30.03 "Hg
* Reported Jul 11 10:00 PM — Jul 26 10:00 PM, Eisenhüttenstadt, Weather by CustomWeather, © 2016

Note: Actual official high and low records may vary slightly from our data, if they occured in-between our weather recording intervals... More about our weather records

Advertising

Eisenhüttenstadt Weather History for the Previous 24 Hours

Scroll right to see more
 ConditionsComfort  
Time TempWeatherWind HumidityBarometerVisibility
10:00 PM
Tue, Jul 26
70 °FClear.3 mph94%30.09 "Hg10 mi
9:30 PM70 °FSunny.2 mph88%30.07 "Hg10 mi
9:00 PM72 °FSunny.3 mph88%30.07 "Hg10 mi
8:30 PM73 °FSunny.2 mph83%30.07 "Hg10 mi
8:00 PM73 °FSunny.1 mph89%30.07 "Hg10 mi
7:30 PM75 °FSunny.1 mph78%30.07 "Hg10 mi
7:00 PM75 °FPassing clouds.5 mph78%30.07 "HgN/A
6:30 PM75 °FPassing clouds.6 mph83%30.07 "HgN/A
6:00 PM77 °FSunny.2 mph74%30.07 "Hg10 mi
5:30 PM72 °FPassing clouds.5 mph88%30.04 "HgN/A
5:00 PM70 °FScattered clouds.6 mph88%30.07 "HgN/A
4:30 PM70 °FSprinkles. Scattered clouds.7 mph83%30.07 "HgN/A
4:00 PM70 °FThunderstorms. Scattered clouds.13 mph78%30.07 "HgN/A
3:30 PM73 °FThunderstorms. Scattered clouds.16 mph69%30.07 "HgN/A
3:00 PM81 °FThunderstorms. Passing clouds.5 mph58%30.04 "HgN/A
2:30 PM79 °FThunderstorms. Passing clouds.2 mph70%30.04 "HgN/A
2:00 PM79 °FPassing clouds.2 mph70%30.07 "HgN/A
1:30 PM75 °FPassing clouds.2 mph83%30.07 "HgN/A
1:00 PM73 °FThunderstorms. Scattered clouds.3 mph83%30.07 "HgN/A
12:30 PM73 °FSprinkles. Broken clouds.2 mph74%30.07 "HgN/A
12:00 PM82 °FSprinkles. Scattered clouds.14 mph51%30.07 "HgN/A
11:30 AM84 °FPassing clouds.2 mph43%30.04 "HgN/A
11:00 AM82 °FPassing clouds.6 mph48%30.04 "HgN/A
10:30 AM84 °FSunny.3 mph45%30.04 "Hg10 mi
10:00 AM82 °FSunny.2 mph51%30.04 "Hg10 mi
9:30 AM81 °FPassing clouds.3 mph54%30.04 "HgN/A
9:00 AM77 °FSunny.2 mph65%30.04 "Hg10 mi
8:30 AM75 °FSunny.No wind69%30.04 "Hg10 mi
8:00 AM72 °FSunny.1 mph78%30.04 "Hg10 mi
7:30 AM68 °FSunny.1 mph88%30.04 "Hg10 mi
7:00 AM64 °FSunny.No wind100%30.04 "Hg10 mi
6:30 AM63 °FSunny.1 mph94%30.04 "Hg10 mi
6:00 AM61 °FClear.2 mph100%30.04 "Hg10 mi
5:30 AM59 °FFog.1 mph100%30.04 "HgN/A
Weather by CustomWeather, © 2016

See weather overviewHow to use our weather pages